Overview Statistics Trail Chart Weather Telemetry Raw packets
 

This is the latest recevied weather packets stored in our database for station/object LU1MQF-13. If no packets are shown the sender has not sent any weather packets the latest 10 day(s).

<< 17 18 19 20 21 22 23 >>
Time Temp. Humidity Pressure Rain* Wind** Luminosity Snow
1777620418 16.11° C 41% 930.8 hPa - - - -
1777619518 16.11° C 41% 930.8 hPa - - - -
1777618618 16.11° C 42% 930.8 hPa - - - -
1777617717 16.11° C 42% 931 hPa - - - -
1777616818 16.11° C 42% 930.8 hPa - - - -
1777615918 16.11° C 42% 930.9 hPa - - - -
1777615018 16.11° C 42% 930.9 hPa - - - -
1777614118 17.22° C 42% 930.9 hPa - - - -
1777613218 17.22° C 42% 931 hPa - - - -
1777612318 17.22° C 43% 931.1 hPa - - - -
1777611418 17.22° C 45% 931.3 hPa - - - -
1777610518 17.22° C 42% 931.3 hPa - - - -
1777609618 17.22° C 42% 931.2 hPa - - - -
1777608718 17.22° C 42% 931.4 hPa - - - -
1777607817 17.22° C 42% 931.4 hPa - - - -
1777606918 17.22° C 42% 931.2 hPa - - - -
1777606017 17.22° C 41% 931.2 hPa - - - -
1777605118 17.22° C 41% 931.5 hPa - - - -
1777604218 17.22° C 42% 931.6 hPa - - - -
1777603318 17.78° C 44% 931.8 hPa - - - -
1777602418 17.22° C 45% 931.8 hPa - - - -
1777601518 17.22° C 41% 931.8 hPa - - - -
1777600617 17.22° C 41% 931.8 hPa - - - -
1777599717 17.78° C 41% 931.8 hPa - - - -
1777598818 17.78° C 43% 931.8 hPa - - - -

* Rain since midnight (hover to see other rain measurements)
** Current wind speed in m/s (hover to see current wind gust speed)